{"data":{"norad_id":67049,"epoch":"2026-09-20T14:09:22.697856Z","epoch_age_seconds":74490,"freshness":"FRESH","line1":"1 67049U 25294V   26263.58984604  .00017500  00000+0  64373-3 0  9999","line2":"2 67049  43.0030  17.6434 0001455 268.6132  91.4553 15.27591246 44609","mean_motion":15.27591246,"eccentricity":0.0001455,"inclination_deg":43.003,"raan_deg":17.6434,"arg_perigee_deg":268.6132,"mean_anomaly_deg":91.4553,"bstar":0.00064373,"rev_number":4460,"period_min":94.266054729669,"perigee_km":482.01712399916,"apogee_km":484.01371935387,"semimajor_km":6861.1524216765,"source":"CELESTRAK","updated_at":"2026-09-21T09:00:36.095020Z"}}